Regional Weather Roundup
Issued by NWS Jackson, KY

Home | Current Version | Previous Version | Graphics & Text | Print | Product List | Glossary Off
Versions: 1 2 3 4 5 6 7 8 9 10 11 12 13 14 15 16 17 18 19 20 21 22 23 24 25 26 27 28 29 30 31 32 33 34 35 36 37 38 39 40 41 42 43 44 45 46 47 48 49 50

000
ASUS43 KJKL 171410
RWRJKL

EAST KENTUCKY HOURLY WEATHER ROUNDUP
NATIONAL WEATHER SERVICE JACKSON KY
900 AM EST TUE JAN 17 2017

NOTE: "FAIR" INDICATES FEW OR NO CLOUDS BELOW 12,000 FEET WITH
NO SIGNIFICANT WEATHER AND/OR OBSTRUCTIONS TO VISIBILITY.

* THESE REPORTS ARE NOT UNDER NWS QUALITY CONTROL AND MAY NOT
  REPORT WEATHER SUCH AS PRECIPITATION AND FOG.

KYZ079-080-083-085-087-088-110-112-115-119-120-171500
...EASTERN KENTUCKY...

CITY           SKY/WX    TMP DP  RH WIND       PRES   REMARKS
JACKSON        CLOUDY    57  54  89 SW8       30.02S
LONDON         CLOUDY    60  54  80 SW10G22   30.04S
SOMERSET*      DRIZZLE   55  55 100 S8        30.04S
MONTICELLO*    LGT RAIN  61  58  90 S8G24     30.04F
WILLIAMSBURG*  CLOUDY    61  57  88 SW12G22   30.06R
MIDDLESBORO*   DRIZZLE   58  55  90 SW7G17    30.10S
HARLAN APT*    CLOUDY    59  52  77 SW9       30.09F
PIKE CO APT*   CLOUDY    55  55 100 S10       30.05F
BIG SANDY APT* LGT RAIN  57  56  97 S10       30.03S
MOREHEAD APT*  LGT RAIN  59  55  88 S10       29.98S
ASHLAND*       CLOUDY    57  55  94 SE5       29.96F
$$

KYZ035-036-041-042-044-050-067-078-099-171500
...CENTRAL KENTUCKY...

CITY           SKY/WX    TMP DP  RH WIND       PRES   REMARKS
MT STERLING*   RAIN      59  57  94 SW12G23   29.98S
FLEMING/MASON* RAIN      57  57  97 SW13G18   29.96S
DANVILLE*      RAIN      59  57  94 SW18      29.98S
LEXINGTON      RAIN      59  57  93 W7        29.96R FOG
FRANKFORT      CLOUDY    61  56  83 SW12      29.93S
LOUISVILLE     MOCLDY    62  57  83 SW13      29.92S
LEBANON*       CLOUDY    61  59  94 S17       29.96S
GLASGOW*       RAIN      62  62 100 SW15G21   30.00R
BOWLING GREEN  LGT RAIN  64  59  83 SW13      29.99R
$$

KYZ091>093-OHZ055-061-077-WVZ005-015-034-035-042-171500
...SOUTHERN OHIO/WEST VIRGINIA...

CITY           SKY/WX    TMP DP  RH WIND       PRES   REMARKS
COVINGTON      MOCLDY    59  56  89 SW10      29.90S
COLUMBUS       PTSUNNY   58  54  86 S13G23    29.89S
DAYTON         CLOUDY    57  55  93 SW18G26   29.86R
WILMINGTON     CLOUDY    57  55  93 SW14G24   29.90R
HUNTINGTON     CLOUDY    57  54  89 S10       29.98F
CHARLESTON     LGT RAIN  56  52  86 S7        30.01F
PINEVILLE*     RAIN      52  48  87 MISG      30.16
BECKLEY        LGT RAIN  53  49  86 S10       30.11S
BLUEFIELD      LGT RAIN  51  47  86 S8        30.14F
LOGAN CO APT*  CLOUDY    55  54  94 S7G14     30.06R FOG
$$

VAZ002-007-008-TNZ017-027-036-066-071-171500
...SOUTHWEST VIRGINIA/EAST TENNESSEE...

CITY           SKY/WX    TMP DP  RH WIND       PRES   REMARKS
WISE*          RAIN      54  54 100 SW13G21   30.13R
JONESVILLE*    LGT RAIN  54  54 100 CALM      30.15R
ABINGDON*      LGT RAIN  53  51  92 CALM      30.15R
BRISTOL        CLOUDY    54  52  93 CALM      30.13S
MORRISTOWN*    CLOUDY    54  52  94 CALM      30.11S
SEVIERVILLE*   CLOUDY    54  52  94 VRB3      30.10S
KNOXVILLE      CLOUDY    64  52  64 SW21G26   30.10S
LAFOLLETTE*    CLOUDY    57  55  94 CALM      30.13R FOG
OAK RIDGE      CLOUDY    57  53  86 W3        30.13R
CROSSVILLE     LGT RAIN  58  54  86 S7        30.12R
NASHVILLE      LGT RAIN  63  61  93 S10       30.02S FOG
$$

...KEY TO REMARKS...
VSB - VISIBILITY IN MILES
WCI - WIND CHILL INDEX
HX  - HEAT INDEX

$$



USA.gov is the U.S. government's official web portal to all federal, state and local government web resources and services.